,,PA_Meas_PMT16A,,PR_Meas_QMR101_102,,RH_Meas_QMH101,,SR_Meas_QMS101,,TA_Meas_QMH101,,GenWind,,GenWind,
time,status,PA,status,PR,status,RH,status,SR,status,TA,status,DirAvg,status,SpdAvg,
2009-09-09, 00:00:04,VALID,920.048,VALID,0,VALID,95.2546,VALID,0,VALID,19.6053,VALID,182,VALID,0.571875,
2009-09-09, 00:01:04,VALID,920.029,VALID,0,VALID,95.3537,VALID,0,VALID,19.6038,VALID,182,VALID,0.446094,
2009-09-09, 00:02:04,VALID,920.03,VALID,0,VALID,95.1707,VALID,0,VALID,19.6038,VALID,182,VALID,0.637891,
2009-09-09, 00:03:04,VALID,920.028,VALID,0,VALID,95.0183,VALID,0,VALID,19.5843,VALID,182,VALID,0.733594,
2009-09-09, 00:04:04,VALID,920.042,VALID,0,VALID,94.8277,VALID,0,VALID,19.5453,VALID,182,VALID,0.876172,
2009-09-09, 00:05:04,VALID,920.029,VALID,0,VALID,95.064,VALID,0,VALID,19.5453,VALID,182,VALID,0.351953,
2009-09-09, 00:06:04,VALID,920.019,VALID,0,VALID,95.125,VALID,0,VALID,19.5258,VALID,182,VALID,0.299609,
2009-09-09, 00:07:04,VALID,919.992,VALID,0,VALID,95.3003,VALID,0,VALID,19.5663,VALID,182,VALID,0.133984,
2009-09-09, 00:08:04,VALID,919.952,VALID,0,VALID,94.9268,VALID,0,VALID,19.5273,VALID,182,VALID,0.389062,
2009-09-09, 00:09:04,VALID,919.911,VALID,0,VALID,94.5532,VALID,0,VALID,19.4868,VALID,182,VALID,0.305078,
2009-09-09, 00:10:04,VALID,919.865,VALID,0,VALID,94.5609,VALID,0,VALID,19.5063,VALID,182,VALID,0.249219,
2009-09-09, 00:11:04,VALID,919.853,VALID,0,VALID,94.355,VALID,0,VALID,19.5273,VALID,182,VALID,0.335938,
2009-09-09, 00:12:04,VALID,919.847,VALID,0,VALID,94.2712,VALID,0,VALID,19.5468,VALID,182,VALID,0,
2009-09-09, 00:13:04,VALID,919.819,VALID,0,VALID,94.7591,VALID,0,VALID,19.5858,VALID,182,VALID,0,
2009-09-09, 00:14:04,VALID,919.809,VALID,0,VALID,94.4389,VALID,0,VALID,19.5453,VALID,182,VALID,0,
2009-09-09, 00:15:04,VALID,919.809,VALID,0,VALID,94.4541,VALID,0,VALID,19.5453,VALID,182,VALID,0,
2009-09-09, 00:16:04,VALID,919.798,VALID,0,VALID,94.5304,VALID,0,VALID,19.5648,VALID,182,VALID,0,
2009-09-09, 00:17:04,VALID,919.805,VALID,0,VALID,94.7057,VALID,0,VALID,19.5648,VALID,182,VALID,0,
2009-09-09, 00:18:04,VALID,919.756,VALID,0,VALID,94.7514,VALID,0,VALID,19.5648,VALID,182,VALID,0,
2009-09-09, 00:19:04,VALID,919.755,VALID,0,VALID,94.7438,VALID,0,VALID,19.5858,VALID,182,VALID,0.914063,
2009-09-09, 00:20:04,VALID,919.696,VALID,0,VALID,94.5609,VALID,0,VALID,19.5063,VALID,182,VALID,1.40547,
2009-09-09, 00:21:04,VALID,919.68,VALID,0,VALID,94.6905,VALID,0,VALID,19.4868,VALID,182,VALID,1.18906,
2009-09-09, 00:22:04,VALID,919.664,VALID,0,VALID,94.6142,VALID,0,VALID,19.4868,VALID,181,VALID,1.18906,
2009-09-09, 00:23:04,VALID,919.635,VALID,0,VALID,94.6066,VALID,0,VALID,19.5063,VALID,162,VALID,0.914844,
2009-09-09, 00:24:04,VALID,919.626,VALID,0,VALID,94.2635,VALID,0,VALID,19.5063,VALID,136,VALID,1.10195,
2009-09-09, 00:25:04,VALID,919.624,VALID,0,VALID,94.3321,VALID,0,VALID,19.5063,VALID,136,VALID,0.769922,
2009-09-09, 00:26:04,VALID,919.61,VALID,0,VALID,94.4236,VALID,0,VALID,19.5258,VALID,136,VALID,0.608984,
2009-09-09, 00:27:04,VALID,919.569,VALID,0,VALID,94.3855,VALID,0,VALID,19.5453,VALID,136,VALID,0.455469,
2009-09-09, 00:28:04,VALID,919.537,VALID,0,VALID,94.5532,VALID,0,VALID,19.5843,VALID,136,VALID,0.546094,
2009-09-09, 00:29:04,VALID,919.552,VALID,0,VALID,94.6828,VALID,0,VALID,19.6248,VALID,136,VALID,0.589063,
2009-09-09, 00:30:04,VALID,919.495,VALID,0,VALID,94.4236,VALID,0,VALID,19.6053,VALID,136,VALID,0.983984,
2009-09-09, 00:31:04,VALID,919.474,VALID,0,VALID,94.3703,VALID,0,VALID,19.6038,VALID,131,VALID,0.916406,
2009-09-09, 00:32:04,VALID,919.472,VALID,0,VALID,94.355,VALID,0,VALID,19.5843,VALID,129,VALID,1.03867,
2009-09-09, 00:33:04,VALID,919.467,VALID,0,VALID,94.4465,VALID,0,VALID,19.5453,VALID,129,VALID,1.35742,
2009-09-09, 00:34:04,VALID,919.443,VALID,0,VALID,94.6447,VALID,0,VALID,19.5258,VALID,98,VALID,1.09297,
2009-09-09, 00:35:04,VALID,919.435,VALID,0,VALID,94.6752,VALID,0,VALID,19.5063,VALID,94,VALID,1.04023,
2009-09-09, 00:36:04,VALID,919.437,VALID,0,VALID,94.6676,VALID,0,VALID,19.4868,VALID,94,VALID,0.871484,
2009-09-09, 00:37:04,VALID,919.445,VALID,0,VALID,94.6676,VALID,0,VALID,19.4868,VALID,94,VALID,1.21953,
2009-09-09, 00:38:04,VALID,919.452,VALID,0,VALID,94.7896,VALID,0,VALID,19.4868,VALID,94,VALID,0.9,
2009-09-09, 00:39:04,VALID,919.461,VALID,0,VALID,94.9115,VALID,0,VALID,19.4853,VALID,119,VALID,1.04062,
2009-09-09, 00:40:04,VALID,919.477,VALID,0,VALID,95.003,VALID,0,VALID,19.4868,VALID,152,VALID,1.12656,
2009-09-09, 00:41:04,VALID,919.479,VALID,0,VALID,95.1631,VALID,0,VALID,19.5078,VALID,152,VALID,0.751172,
2009-09-09, 00:42:04,VALID,919.485,VALID,0,VALID,95.2851,VALID,0,VALID,19.5258,VALID,152,VALID,0.108594,
2009-09-09, 00:43:04,VALID,919.489,VALID,0,VALID,95.3156,VALID,0,VALID,19.5273,VALID,152,VALID,0.443359,
2009-09-09, 00:44:04,VALID,919.448,VALID,0,VALID,95.2622,VALID,0,VALID,19.5468,VALID,152,VALID,0.230469,
2009-09-09, 00:45:04,VALID,919.496,VALID,0,VALID,95.2927,VALID,0,VALID,19.5063,VALID,152,VALID,0.487109,
2009-09-09, 00:46:04,VALID,919.502,VALID,0,VALID,95.3461,VALID,0,VALID,19.5258,VALID,186,VALID,0.736328,
2009-09-09, 00:47:04,VALID,919.489,VALID,0,VALID,95.3232,VALID,0,VALID,19.5258,VALID,211,VALID,0.391406,
2009-09-09, 00:48:04,VALID,919.472,VALID,0,VALID,95.59,VALID,0,VALID,19.5663,VALID,211,VALID,0.442578,
2009-09-09, 00:49:04,VALID,919.476,VALID,0,VALID,95.4299,VALID,0,VALID,19.5663,VALID,211,VALID,0.841797,
2009-09-09, 00:50:04,VALID,919.526,VALID,0,VALID,95.4299,VALID,0,VALID,19.5273,VALID,211,VALID,0.307031,
2009-09-09, 00:51:04,VALID,919.509,VALID,0,VALID,95.4985,VALID,0,VALID,19.5468,VALID,211,VALID,0.460938,
2009-09-09, 00:52:04,VALID,919.506,VALID,0,VALID,95.5214,VALID,0.107441,VALID,19.5048,VALID,211,VALID,1.03672,
2009-09-09, 00:53:04,VALID,919.477,VALID,0,VALID,95.5214,VALID,0.107441,VALID,19.5258,VALID,211,VALID,0.616797,
2009-09-09, 00:54:04,VALID,919.508,VALID,0,VALID,95.59,VALID,0.107441,VALID,19.4853,VALID,211,VALID,1.09063,
2009-09-09, 00:55:04,VALID,919.513,VALID,0,VALID,95.6739,VALID,0.107441,VALID,19.4853,VALID,210,VALID,1.13906,
2009-09-09, 00:56:04,VALID,919.529,VALID,0,VALID,95.7501,VALID,0,VALID,19.4868,VALID,209,VALID,0.582422,
2009-09-09, 00:57:04,VALID,919.519,VALID,0,VALID,95.8721,VALID,0,VALID,19.4853,VALID,209,VALID,0.647656,
2009-09-09, 00:58:04,VALID,919.508,VALID,0,VALID,95.9178,VALID,0.107441,VALID,19.4868,VALID,209,VALID,0.867188,
2009-09-09, 00:59:04,VALID,919.5,VALID,0,VALID,95.9636,VALID,0.107441,VALID,19.5063,VALID,208,VALID,0.708984,
2009-09-09, 01:00:04,VALID,919.524,VALID,0,VALID,96.0017,VALID,0,VALID,19.5258,VALID,207,VALID,0.686719,
2009-09-09, 01:01:04,VALID,919.513,VALID,0,VALID,96.0703,VALID,0,VALID,19.5258,VALID,147,VALID,1.09648,
2009-09-09, 01:02:04,VALID,919.5,VALID,0,VALID,96.0245,VALID,0.107441,VALID,19.5258,VALID,152,VALID,0.959766,
2009-09-09, 01:03:04,VALID,919.477,VALID,0,VALID,96.0627,VALID,0,VALID,19.5453,VALID,152,VALID,1.22852,
2009-09-09, 01:04:04,VALID,919.486,VALID,0,VALID,96.0169,VALID,0,VALID,19.5258,VALID,152,VALID,0.805078,
2009-09-09, 01:05:04,VALID,919.482,VALID,0,VALID,96.0779,VALID,0.107441,VALID,19.5453,VALID,152,VALID,0.617188,
2009-09-09, 01:06:04,VALID,919.481,VALID,0,VALID,96.0855,VALID,0,VALID,19.5453,VALID,152,VALID,0.758203,
2009-09-09, 01:07:04,VALID,919.493,VALID,0,VALID,96.0932,VALID,0,VALID,19.5468,VALID,152,VALID,0.753516,
2009-09-09, 01:08:04,VALID,919.488,VALID,0,VALID,96.116,VALID,0,VALID,19.5468,VALID,152,VALID,0.726563,
2009-09-09, 01:09:04,VALID,919.495,VALID,0,VALID,96.1541,VALID,0,VALID,19.5468,VALID,152,VALID,0.808594,
2009-09-09, 01:10:04,VALID,919.485,VALID,0,VALID,96.1923,VALID,0,VALID,19.5663,VALID,152,VALID,0.657422,
2009-09-09, 01:11:04,VALID,919.458,VALID,0,VALID,96.238,VALID,0,VALID,19.5663,VALID,152,VALID,0.697656,
2009-09-09, 01:12:04,VALID,919.429,VALID,0,VALID,96.2533,VALID,0,VALID,19.5843,VALID,152,VALID,0.862891,
2009-09-09, 01:13:04,VALID,919.411,VALID,0,VALID,96.2304,VALID,0,VALID,19.6053,VALID,152,VALID,0.619922,
2009-09-09, 01:14:04,VALID,919.39,VALID,0,VALID,96.2837,VALID,0,VALID,19.6248,VALID,176,VALID,0.654297,
2009-09-09, 01:15:04,VALID,919.332,VALID,0,VALID,96.2609,VALID,0,VALID,19.6038,VALID,176,VALID,0.760547,
2009-09-09, 01:16:04,VALID,919.321,VALID,0,VALID,96.2456,VALID,0,VALID,19.6443,VALID,176,VALID,0.675391,
2009-09-09, 01:17:04,VALID,919.277,VALID,0,VALID,96.2837,VALID,0,VALID,19.6443,VALID,176,VALID,1.10898,
2009-09-09, 01:18:04,VALID,919.274,VALID,0,VALID,96.2609,VALID,0,VALID,19.6233,VALID,176,VALID,1.07539,
2009-09-09, 01:19:04,VALID,919.265,VALID,0,VALID,96.2609,VALID,0,VALID,19.6638,VALID,176,VALID,0.911328,
2009-09-09, 01:20:04,VALID,919.258,VALID,0,VALID,96.2609,VALID,0,VALID,19.6428,VALID,176,VALID,0.902344,
2009-09-09, 01:21:04,VALID,919.232,VALID,0,VALID,96.2533,VALID,0,VALID,19.6638,VALID,176,VALID,0.798828,
2009-09-09, 01:22:04,VALID,919.221,VALID,0,VALID,96.2304,VALID,0,VALID,19.6623,VALID,176,VALID,0.847266,
2009-09-09, 01:23:04,VALID,919.212,VALID,0,VALID,96.2228,VALID,0,VALID,19.6428,VALID,175,VALID,1.04258,
2009-09-09, 01:24:04,VALID,919.161,VALID,0,VALID,96.2456,VALID,0,VALID,19.6833,VALID,175,VALID,1.10117,
2009-09-09, 01:25:04,VALID,919.144,VALID,0,VALID,96.2304,VALID,0,VALID,19.6623,VALID,124,VALID,1.10039,
2009-09-09, 01:26:04,VALID,919.138,VALID,0,VALID,96.177,VALID,0,VALID,19.6833,VALID,139,VALID,1.30977,
2009-09-09, 01:27:04,VALID,919.11,VALID,0,VALID,96.1618,VALID,0,VALID,19.6818,VALID,139,VALID,0.760156,
2009-09-09, 01:28:04,VALID,919.055,VALID,0,VALID,96.0932,VALID,0,VALID,19.7013,VALID,139,VALID,0.948047,
2009-09-09, 01:29:04,VALID,919.049,VALID,0,VALID,96.1389,VALID,0,VALID,19.7208,VALID,139,VALID,0.702734,
2009-09-09, 01:30:04,VALID,919.017,VALID,0,VALID,96.0474,VALID,0,VALID,19.7403,VALID,139,VALID,0.814062,
2009-09-09, 01:31:04,VALID,918.993,VALID,0,VALID,96.0398,VALID,0,VALID,19.7598,VALID,139,VALID,0.191406,
2009-09-09, 01:32:04,VALID,918.997,VALID,0,VALID,96.0093,VALID,0,VALID,19.7613,VALID,139,VALID,0.694531,
2009-09-09, 01:33:04,VALID,918.975,VALID,0,VALID,95.9941,VALID,0,VALID,19.7598,VALID,139,VALID,0.499219,
2009-09-09, 01:34:04,VALID,918.96,VALID,0,VALID,95.9712,VALID,0,VALID,19.7598,VALID,139,VALID,0.413281,
2009-09-09, 01:35:04,VALID,918.968,VALID,0,VALID,95.9407,VALID,0,VALID,19.7793,VALID,139,VALID,0.0730469,
2009-09-09, 01:36:04,VALID,918.956,VALID,0,VALID,95.9636,VALID,0,VALID,19.7988,VALID,139,VALID,0.252344,
2009-09-09, 01:37:04,VALID,918.948,VALID,0,VALID,95.9712,VALID,0,VALID,19.8393,VALID,139,VALID,0.338672,
2009-09-09, 01:38:04,VALID,918.954,VALID,0,VALID,95.9636,VALID,0,VALID,19.8588,VALID,139,VALID,0.240234,
2009-09-09, 01:39:04,VALID,918.933,VALID,0,VALID,95.773,VALID,0,VALID,19.8183,VALID,139,VALID,0.402734,
2009-09-09, 01:40:04,VALID,918.929,VALID,0,VALID,95.712,VALID,0,VALID,19.7988,VALID,139,VALID,0.552344,
2009-09-09, 01:41:04,VALID,918.911,VALID,0,VALID,95.6281,VALID,0,VALID,19.7988,VALID,139,VALID,0.392188,
2009-09-09, 01:42:04,VALID,918.859,VALID,0,VALID,95.6281,VALID,0,VALID,19.7988,VALID,139,VALID,0.447656,
2009-09-09, 01:43:04,VALID,918.878,VALID,0,VALID,95.59,VALID,0,VALID,19.8003,VALID,139,VALID,0.598437,
2009-09-09, 01:44:04,VALID,918.859,VALID,0,VALID,95.6205,VALID,0,VALID,19.7598,VALID,139,VALID,0.606641,
2009-09-09, 01:45:04,VALID,918.81,VALID,0,VALID,95.651,VALID,0,VALID,19.7598,VALID,139,VALID,0.514063,
2009-09-09, 01:46:04,VALID,918.803,VALID,0,VALID,95.712,VALID,0,VALID,19.7403,VALID,139,VALID,0.514063,
2009-09-09, 01:47:04,VALID,918.758,VALID,0,VALID,95.7806,VALID,0,VALID,19.7598,VALID,139,VALID,0.712891,
2009-09-09, 01:48:04,VALID,918.768,VALID,0,VALID,95.8187,VALID,0,VALID,19.7613,VALID,139,VALID,0.742188,
2009-09-09, 01:49:04,VALID,918.705,VALID,0,VALID,95.9331,VALID,0,VALID,19.7808,VALID,139,VALID,0.757813,
2009-09-09, 01:50:04,VALID,918.699,VALID,0,VALID,95.8187,VALID,0,VALID,19.7403,VALID,139,VALID,0.705859,
2009-09-09, 01:51:04,VALID,918.681,VALID,0,VALID,95.8263,VALID,0,VALID,19.7208,VALID,139,VALID,0.567578,
2009-09-09, 01:52:04,VALID,918.65,VALID,0,VALID,95.9178,VALID,0,VALID,19.7208,VALID,139,VALID,0.496875,
2009-09-09, 01:53:04,VALID,918.633,VALID,0,VALID,95.9941,VALID,0,VALID,19.7613,VALID,139,VALID,0.586719,
2009-09-09, 01:54:04,VALID,918.625,VALID,0,VALID,95.895,VALID,0,VALID,19.7208,VALID,139,VALID,0.648438,
2009-09-09, 01:55:04,VALID,918.601,VALID,0,VALID,95.8492,VALID,0,VALID,19.7013,VALID,139,VALID,0.902734,
2009-09-09, 01:56:04,VALID,918.606,VALID,0,VALID,95.9407,VALID,0,VALID,19.7028,VALID,139,VALID,0.617578,
2009-09-09, 01:57:04,VALID,918.592,VALID,0,VALID,95.9712,VALID,0,VALID,19.6623,VALID,139,VALID,0.416016,
2009-09-09, 01:58:04,VALID,918.578,VALID,0,VALID,96.0779,VALID,0,VALID,19.6833,VALID,139,VALID,0.779297,
2009-09-09, 01:59:04,VALID,918.569,VALID,0,VALID,96.1084,VALID,0,VALID,19.6638,VALID,139,VALID,0.680078,
2009-09-09, 02:00:04,VALID,918.566,VALID,0,VALID,96.1618,VALID,0,VALID,19.6233,VALID,139,VALID,0.617969,
2009-09-09, 02:01:04,VALID,918.557,VALID,0,VALID,96.2685,VALID,0,VALID,19.6443,VALID,139,VALID,0.803906,
2009-09-09, 02:02:04,VALID,918.576,VALID,0,VALID,96.36,VALID,0,VALID,19.6638,VALID,139,VALID,0.967188,
2009-09-09, 02:03:04,VALID,918.529,VALID,0,VALID,96.3981,VALID,0,VALID,19.6638,VALID,139,VALID,0.829297,
2009-09-09, 02:04:04,VALID,918.553,VALID,0,VALID,96.4362,VALID,0,VALID,19.6833,VALID,139,VALID,0.824219,
2009-09-09, 02:05:04,VALID,918.532,VALID,0,VALID,96.4515,VALID,0,VALID,19.7028,VALID,139,VALID,1.00039,
2009-09-09, 02:06:04,VALID,918.574,VALID,0,VALID,96.4591,VALID,0,VALID,19.7223,VALID,139,VALID,0.950391,
2009-09-09, 02:07:04,VALID,918.552,VALID,0,VALID,96.4286,VALID,0,VALID,19.6998,VALID,139,VALID,1.13398,
2009-09-09, 02:08:04,VALID,918.539,VALID,0,VALID,96.4819,VALID,0,VALID,19.6998,VALID,139,VALID,0.609766,
2009-09-09, 02:09:04,VALID,918.533,VALID,0,VALID,96.4896,VALID,0,VALID,19.7193,VALID,139,VALID,0.940625,
2009-09-09, 02:10:04,VALID,918.559,VALID,0,VALID,96.4515,VALID,0,VALID,19.7193,VALID,139,VALID,0.33125,
2009-09-09, 02:11:04,VALID,918.552,VALID,0,VALID,96.4819,VALID,0,VALID,19.7403,VALID,139,VALID,0.410937,
2009-09-09, 02:12:04,VALID,918.525,VALID,0,VALID,96.4667,VALID,0.107441,VALID,19.7403,VALID,139,VALID,0.325391,
2009-09-09, 02:13:04,VALID,918.555,VALID,0,VALID,96.4362,VALID,0.107441,VALID,19.7193,VALID,139,VALID,0,
2009-09-09, 02:14:04,VALID,918.535,VALID,0,VALID,96.4515,VALID,0,VALID,19.7403,VALID,139,VALID,0.36875,
2009-09-09, 02:15:04,VALID,918.527,VALID,0,VALID,96.4515,VALID,0.107441,VALID,19.7598,VALID,139,VALID,0.198047,
2009-09-09, 02:16:04,VALID,918.528,VALID,0,VALID,96.4667,VALID,0,VALID,19.7403,VALID,139,VALID,0.135156,
2009-09-09, 02:17:04,VALID,918.54,VALID,0,VALID,96.4667,VALID,0.107441,VALID,19.7388,VALID,139,VALID,0,
2009-09-09, 02:18:04,VALID,918.522,VALID,0,VALID,96.5201,VALID,0,VALID,19.7793,VALID,139,VALID,0.642969,
2009-09-09, 02:19:04,VALID,918.523,VALID,0,VALID,96.5277,VALID,0.107441,VALID,19.7778,VALID,139,VALID,0.583984,
2009-09-09, 02:20:04,VALID,918.498,VALID,0,VALID,96.5277,VALID,0.107441,VALID,19.8183,VALID,139,VALID,0.192188,
2009-09-09, 02:21:04,VALID,918.471,VALID,0,VALID,96.5048,VALID,0,VALID,19.8183,VALID,139,VALID,0,
2009-09-09, 02:22:04,VALID,918.475,VALID,0,VALID,96.5124,VALID,0,VALID,19.7988,VALID,140,VALID,0.271875,
2009-09-09, 02:23:04,VALID,918.472,VALID,0,VALID,96.5048,VALID,0,VALID,19.8183,VALID,149,VALID,0.219141,
2009-09-09, 02:24:04,VALID,918.472,VALID,0,VALID,96.4743,VALID,0,VALID,19.8588,VALID,149,VALID,0.316016,
2009-09-09, 02:25:04,VALID,918.484,VALID,0,VALID,96.4591,VALID,0,VALID,19.8378,VALID,149,VALID,0.151172,
2009-09-09, 02:26:04,VALID,918.487,VALID,0,VALID,96.4133,VALID,0,VALID,19.8573,VALID,149,VALID,0.209375,
2009-09-09, 02:27:04,VALID,918.508,VALID,0,VALID,96.3981,VALID,0,VALID,19.8978,VALID,149,VALID,0.00117188,
2009-09-09, 02:28:04,VALID,918.539,VALID,0,VALID,96.3524,VALID,0,VALID,19.8768,VALID,149,VALID,0.0449219,
2009-09-09, 02:29:04,VALID,918.527,VALID,0,VALID,96.2685,VALID,0,VALID,19.8783,VALID,149,VALID,0,
2009-09-09, 02:30:04,VALID,918.55,VALID,0,VALID,96.2685,VALID,0,VALID,19.8783,VALID,149,VALID,0,
2009-09-09, 02:31:04,VALID,918.575,VALID,0,VALID,96.2075,VALID,0,VALID,19.8588,VALID,149,VALID,0,
2009-09-09, 02:32:04,VALID,918.591,VALID,0,VALID,96.2075,VALID,0,VALID,19.8378,VALID,149,VALID,0,
2009-09-09, 02:33:04,VALID,918.604,VALID,0,VALID,96.2456,VALID,0,VALID,19.8378,VALID,149,VALID,0,
2009-09-09, 02:34:04,VALID,918.599,VALID,0,VALID,96.1999,VALID,0,VALID,19.8378,VALID,149,VALID,0,
2009-09-09, 02:35:04,VALID,918.595,VALID,0,VALID,96.2533,VALID,0,VALID,19.8378,VALID,149,VALID,0.330859,
2009-09-09, 02:36:04,VALID,918.576,VALID,0,VALID,96.2914,VALID,0,VALID,19.8573,VALID,149,VALID,0.237109,
2009-09-09, 02:37:04,VALID,918.58,VALID,0,VALID,96.3066,VALID,0,VALID,19.8783,VALID,149,VALID,0.400781,
2009-09-09, 02:38:04,VALID,918.579,VALID,0,VALID,96.299,VALID,0,VALID,19.8768,VALID,149,VALID,0.332031,
2009-09-09, 02:39:04,VALID,918.591,VALID,0,VALID,96.2761,VALID,0,VALID,19.8978,VALID,149,VALID,0.577344,
2009-09-09, 02:40:04,VALID,918.555,VALID,0,VALID,96.3142,VALID,0,VALID,19.8963,VALID,149,VALID,0.342969,
2009-09-09, 02:41:04,VALID,918.556,VALID,0,VALID,96.2837,VALID,0,VALID,19.9173,VALID,149,VALID,0.486719,
2009-09-09, 02:42:04,VALID,918.542,VALID,0,VALID,96.2304,VALID,0,VALID,19.9368,VALID,149,VALID,0,
2009-09-09, 02:43:04,VALID,918.517,VALID,0,VALID,96.2228,VALID,0,VALID,19.9173,VALID,149,VALID,0.337109,
2009-09-09, 02:44:04,VALID,918.533,VALID,0,VALID,96.2304,VALID,0,VALID,19.9158,VALID,149,VALID,0.316406,
2009-09-09, 02:45:04,VALID,918.517,VALID,0,VALID,96.2075,VALID,0,VALID,19.9368,VALID,149,VALID,0.545703,
2009-09-09, 02:46:04,VALID,918.533,VALID,0,VALID,96.1694,VALID,0,VALID,19.9563,VALID,149,VALID,0.283594,
2009-09-09, 02:47:04,VALID,918.523,VALID,0,VALID,96.1008,VALID,0,VALID,19.9563,VALID,149,VALID,0.347266,
2009-09-09, 02:48:04,VALID,918.524,VALID,0,VALID,96.0627,VALID,0,VALID,19.9548,VALID,149,VALID,0.36875,
2009-09-09, 02:49:04,VALID,918.478,VALID,0,VALID,95.9788,VALID,0,VALID,19.9563,VALID,149,VALID,0.635938,
2009-09-09, 02:50:04,VALID,918.523,VALID,0,VALID,95.9026,VALID,0,VALID,19.9353,VALID,149,VALID,0.825,
2009-09-09, 02:51:04,VALID,918.498,VALID,0,VALID,95.8416,VALID,0,VALID,19.8963,VALID,149,VALID,0.750391,
2009-09-09, 02:52:04,VALID,918.489,VALID,0,VALID,95.8645,VALID,0,VALID,19.9173,VALID,149,VALID,0.706641,
2009-09-09, 02:53:04,VALID,918.529,VALID,0,VALID,95.9407,VALID,0,VALID,19.8978,VALID,149,VALID,0.758594,
2009-09-09, 02:54:04,VALID,918.507,VALID,0,VALID,96.0245,VALID,0,VALID,19.8768,VALID,149,VALID,0.664063,
2009-09-09, 02:55:04,VALID,918.521,VALID,0,VALID,96.1008,VALID,0,VALID,19.8768,VALID,149,VALID,0.580469,
2009-09-09, 02:56:04,VALID,918.517,VALID,0,VALID,96.1084,VALID,0,VALID,19.8768,VALID,149,VALID,0.927344,
2009-09-09, 02:57:04,VALID,918.513,VALID,0,VALID,96.0703,VALID,0,VALID,19.8978,VALID,149,VALID,0.466016,
2009-09-09, 02:58:04,VALID,918.483,VALID,0,VALID,96.0017,VALID,0,VALID,19.9158,VALID,149,VALID,0.830078,
2009-09-09, 02:59:04,VALID,918.536,VALID,0,VALID,95.9559,VALID,0,VALID,19.9353,VALID,149,VALID,0.493359,
2009-09-09, 03:00:04,VALID,918.479,VALID,0,VALID,95.8416,VALID,0,VALID,19.9158,VALID,149,VALID,0.586328,
2009-09-09, 03:01:04,VALID,918.439,VALID,0,VALID,95.7958,VALID,0,VALID,19.9758,VALID,149,VALID,0.332031,
2009-09-09, 03:02:04,VALID,918.404,VALID,0,VALID,95.7577,VALID,0,VALID,19.9743,VALID,149,VALID,0.793359,
2009-09-09, 03:03:04,VALID,918.405,VALID,0,VALID,95.6281,VALID,0,VALID,19.9743,VALID,149,VALID,0.416797,
2009-09-09, 03:04:04,VALID,918.385,VALID,0,VALID,95.5214,VALID,0,VALID,19.9758,VALID,150,VALID,1.21641,
2009-09-09, 03:05:04,VALID,918.354,VALID,0,VALID,95.5214,VALID,0,VALID,19.9353,VALID,150,VALID,0.605859,
2009-09-09, 03:06:04,VALID,918.335,VALID,0,VALID,95.59,VALID,0,VALID,19.9353,VALID,150,VALID,0.563281,
2009-09-09, 03:07:04,VALID,918.356,VALID,0,VALID,95.6662,VALID,0,VALID,19.9158,VALID,150,VALID,0.907031,
2009-09-09, 03:08:04,VALID,918.374,VALID,0,VALID,95.7577,VALID,0,VALID,19.8963,VALID,150,VALID,1.0418,
2009-09-09, 03:09:04,VALID,918.364,VALID,0,VALID,95.8187,VALID,0,VALID,19.8573,VALID,150,VALID,0.612891,
2009-09-09, 03:10:04,VALID,918.383,VALID,0,VALID,95.9102,VALID,0,VALID,19.8768,VALID,150,VALID,0.516406,
2009-09-09, 03:11:04,VALID,918.397,VALID,0,VALID,95.9559,VALID,0,VALID,19.8573,VALID,150,VALID,0.585938,
2009-09-09, 03:12:04,VALID,918.389,VALID,0,VALID,96.0017,VALID,0,VALID,19.8573,VALID,150,VALID,0.510938,
2009-09-09, 03:13:04,VALID,918.382,VALID,0,VALID,96.0093,VALID,0,VALID,19.8588,VALID,150,VALID,0.508203,
2009-09-09, 03:14:04,VALID,918.406,VALID,0,VALID,96.0398,VALID,0,VALID,19.8588,VALID,150,VALID,0.399609,
2009-09-09, 03:15:04,VALID,918.393,VALID,0,VALID,96.055,VALID,0,VALID,19.8783,VALID,150,VALID,0.528125,
2009-09-09, 03:16:04,VALID,918.38,VALID,0,VALID,96.0093,VALID,0,VALID,19.8588,VALID,150,VALID,0.497656,
2009-09-09, 03:17:04,VALID,918.372,VALID,0,VALID,96.0627,VALID,0,VALID,19.8378,VALID,150,VALID,0.453125,
2009-09-09, 03:18:04,VALID,918.329,VALID,0,VALID,96.0322,VALID,0,VALID,19.8573,VALID,150,VALID,0.516406,
2009-09-09, 03:19:04,VALID,918.357,VALID,0,VALID,96.0474,VALID,0,VALID,19.8588,VALID,150,VALID,0.355859,
2009-09-09, 03:20:04,VALID,918.348,VALID,0,VALID,96.0855,VALID,0,VALID,19.8393,VALID,150,VALID,0.167187,
2009-09-09, 03:21:04,VALID,918.338,VALID,0,VALID,96.116,VALID,0,VALID,19.8573,VALID,150,VALID,0.184766,
2009-09-09, 03:22:04,VALID,918.332,VALID,0,VALID,96.0627,VALID,0,VALID,19.8573,VALID,150,VALID,0.198047,
2009-09-09, 03:23:04,VALID,918.341,VALID,0,VALID,96.0093,VALID,0,VALID,19.8588,VALID,150,VALID,0.162109,
2009-09-09, 03:24:04,VALID,918.328,VALID,0,VALID,95.9636,VALID,0,VALID,19.8183,VALID,150,VALID,0.276563,
2009-09-09, 03:25:04,VALID,918.318,VALID,0,VALID,95.9331,VALID,0,VALID,19.7988,VALID,150,VALID,0.320703,
2009-09-09, 03:26:04,VALID,918.323,VALID,0,VALID,95.9331,VALID,0,VALID,19.8198,VALID,150,VALID,0.305469,
2009-09-09, 03:27:04,VALID,918.303,VALID,0,VALID,95.8721,VALID,0,VALID,19.7793,VALID,150,VALID,0.224219,
2009-09-09, 03:28:04,VALID,918.275,VALID,0,VALID,95.9026,VALID,0,VALID,19.7598,VALID,150,VALID,0.171875,
2009-09-09, 03:29:04,VALID,918.312,VALID,0,VALID,95.9407,VALID,0,VALID,19.7403,VALID,150,VALID,0.233203,
2009-09-09, 03:30:04,VALID,918.294,VALID,0,VALID,95.895,VALID,0,VALID,19.7208,VALID,150,VALID,0.279297,
2009-09-09, 03:31:04,VALID,918.321,VALID,0,VALID,95.8721,VALID,0,VALID,19.7013,VALID,150,VALID,0.352344,
2009-09-09, 03:32:04,VALID,918.365,VALID,0,VALID,95.9712,VALID,0,VALID,19.7028,VALID,150,VALID,0.189844,
2009-09-09, 03:33:04,VALID,918.374,VALID,0,VALID,96.0169,VALID,0,VALID,19.6623,VALID,150,VALID,0.0820313,
2009-09-09, 03:34:04,VALID,918.438,VALID,0,VALID,96.055,VALID,0,VALID,19.6638,VALID,150,VALID,0,
2009-09-09, 03:35:04,VALID,918.407,VALID,0,VALID,96.1236,VALID,0,VALID,19.6833,VALID,150,VALID,0,
2009-09-09, 03:36:04,VALID,918.425,VALID,0,VALID,96.2151,VALID,0,VALID,19.6623,VALID,150,VALID,0,
2009-09-09, 03:37:04,VALID,918.425,VALID,0,VALID,96.2151,VALID,0,VALID,19.7028,VALID,150,VALID,0,
2009-09-09, 03:38:04,VALID,918.45,VALID,0,VALID,96.2228,VALID,0,VALID,19.7028,VALID,150,VALID,0,
2009-09-09, 03:39:04,VALID,918.439,VALID,0,VALID,96.2533,VALID,0,VALID,19.7028,VALID,150,VALID,0,
2009-09-09, 03:40:04,VALID,918.456,VALID,0,VALID,96.3295,VALID,0,VALID,19.7223,VALID,150,VALID,0,
2009-09-09, 03:41:04,VALID,918.483,VALID,0,VALID,96.299,VALID,0,VALID,19.7223,VALID,150,VALID,0,
2009-09-09, 03:42:04,VALID,918.475,VALID,0,VALID,96.2533,VALID,0,VALID,19.7223,VALID,150,VALID,0.396484,
2009-09-09, 03:43:04,VALID,918.48,VALID,0,VALID,96.299,VALID,0,VALID,19.7223,VALID,150,VALID,0.647656,
2009-09-09, 03:44:04,VALID,918.478,VALID,0,VALID,96.299,VALID,0,VALID,19.6818,VALID,150,VALID,0.633203,
2009-09-09, 03:45:04,VALID,918.484,VALID,0,VALID,96.3829,VALID,0,VALID,19.7028,VALID,150,VALID,0.469922,